Preview of NWS' New Version of Forecast
This preview is not operational and should not be used for support decisions.

Regional Weather Roundup (RWR)

Issued by National Weather Service (NWS)

                            
000
ASCA42 TJSJ 190810
RWRPR 
PUERTO RICO/U.S. VIRGIN ISLANDS HOURLY WEATHER ROUNDUP
NATIONAL WEATHER SERVICE SAN JUAN PR
400 AM AST TUE MAR 19 2019

PRZ001>002-007>008-010-190900-
PUERTO RICO
  
CITY           SKY/WX    TMP DP  RH WIND       PRES   REMARKS
SAN JUAN LMM   PTCLDY    72  64  78 SE3       29.99F                  
$$

VIZ001>002-190900-
U.S. VIRGIN ISLANDS
  
CITY           SKY/WX    TMP DP  RH WIND       PRES   REMARKS
CHARLOTTE AMA  CLEAR     73  63  68 NE6       29.99F                  
CHRISTIANSTED  CLEAR     72  61  68 N6        29.99F                  
$$

HOURLY WEATHER ROUNDUP FOR THE NEWS MEDIA
  
CITY           SKY/WX    TMP DP  RH WIND       PRES   REMARKS
ORLANDO        MOCLDY    58  49  72 N6        30.08F                  
NEW YORK       FAIR      35  25  66 N10       30.37S WCI  27          
NEWARK         FAIR      36  19  50 N10       30.36F WCI  28          
CHICAGO        MOCLDY    33  25  72 SW6       30.36S WCI  28          
HARTFORD       FAIR      22  19  89 CALM      30.31F                  
BOSTON         FAIR      35  12  38 W7        30.31S WCI  29          
DALLAS         MOCLDY    52  40  63 CALM      30.25S                  
PHILADELPHIA   FAIR      35  21  56 N9        30.37F WCI  28          
LOS ANGELES    PTCLDY    57  54  89 CALM      29.97F                  
WASHINGTON DC  FAIR      28  18  66 CALM      30.39S